This demonstration page uses our WeatherBlox Daily Observations layout. Learn more.

Left ArrowRight Arrow

Hourly Observations for February 7, 2019

Temp ( °F °C ) Dew Point ( °F °C ) Humidity (%) Winds ( mph kmh ) Pressure ( in mb ) Visibility ( mi km ) Precip ( " mm )
12:30 am 00:30 Cloudy 64 17.8 64 17.8 100 100 Calm 30.10 1019 8 13 0.00 0.00
12:50 am 00:50 Cloudy 64 18 64 18 100 100 S 3 6 30.09 1019 10 16 0.00 0.00
12:53 am 00:53 Cloudy 64 17.8 64 17.8 100 100 S 5 7 30.09 1019 10 16 0.00 0.00
1:10 am 01:10 Cloudy 64 17.8 64 17.8 100 100 SSW 5 7 30.10 1019 10 16 0.00 0.00
1:39 am 01:39 Cloudy 64 17.8 64 17.8 100 100 SSW 6 9 30.09 1019 10 16 0.00 0.00
1:53 am 01:53 Mostly Cloudy 64 17.8 64 17.8 100 100 SSW 6 9 30.08 1019 10 16 0.00 0.00
2:53 am 02:53 Mostly Cloudy 64 17.8 64 17.8 100 100 SSW 5 7 30.08 1019 10 16 0.00 0.00
3:29 am 03:29 Partly Cloudy 63 17.2 63 17.2 100 100 SSW 5 7 30.08 1019 10 16 0.00 0.00
3:51 am 03:51 Mostly Cloudy 63 17 63 17 100 100 SSW 3 6 30.08 1019 10 16 0.00 0.00
3:53 am 03:53 Mostly Cloudy 63 17.2 63 17.2 100 100 SW 5 7 30.07 1018 10 16 0.00 0.00
4:53 am 04:53 Cloudy 62 16.7 62 16.7 100 100 Calm 30.08 1019 7 11 0.00 0.00
5:53 am 05:53 Cloudy 63 17.2 63 17.2 100 100 SW 3 6 30.08 1019 10 16 0.00 0.00
6:31 am 06:31 Cloudy 65 18.3 64 17.8 97 97 SSW 6 9 30.08 1019 10 16 0.00 0.00
6:53 am 06:53 Cloudy 65 18.3 64 17.8 97 97 SSW 6 9 30.08 1019 10 16 0.00 0.00
7:53 am 07:53 Mostly Sunny 63 17.2 62 16.7 97 97 SSW 6 9 30.09 1019 10 16 0.00 0.00
8:32 am 08:32 Mostly Cloudy 63 17.2 62 16.7 97 97 SSW 6 9 30.10 1019 10 16 0.00 0.00
8:53 am 08:53 Mostly Cloudy 64 17.8 62 16.7 93 93 SSW 6 9 30.10 1019 10 16 0.00 0.00
9:14 am 09:14 Partly Cloudy 65 18.3 61 16.1 87 87 SSW 10 17 30.09 1019 10 16 0.00 0.00
9:53 am 09:53 Mostly Sunny 68 20 60 15.6 76 76 SSW 8 13 30.09 1019 10 16 0.00 0.00
10:53 am 10:53 Sunny 72 22.2 60 15.6 66 66 SSW 8 13 30.09 1019 10 16 0.00 0.00
11:53 am 11:53 Sunny 74 23.3 60 15.6 62 62 SSW 9 15 30.09 1019 10 16 0.00 0.00
12:53 pm 12:53 Mostly Sunny 77 25 58 14.4 52 52 WSW 13 20 30.08 1019 10 16 0.00 0.00
1:53 pm 13:53 Mostly Sunny 79 26.1 58 14.4 49 49 SSW 13 20 30.05 1018 10 16 0.00 0.00
2:53 pm 14:53 Sunny 80 26.7 57 13.9 45 45 SSW 16 26 30.03 1017 10 16 0.00 0.00
3:53 pm 15:53 Sunny 80 26.7 56 13.3 44 44 SSW 14 22 30.01 1016 10 16 0.00 0.00
4:53 pm 16:53 Sunny 80 26.7 56 13.3 44 44 SSW 13 20 30.01 1016 10 16 0.00 0.00
5:53 pm 17:53 Sunny 77 25 57 13.9 50 50 SSW 9 15 30.00 1016 10 16 0.00 0.00
6:53 pm 18:53 Clear 74 23.3 57 13.9 56 56 SSW 5 7 30.02 1017 10 16 0.00 0.00
7:53 pm 19:53 Clear 73 22.8 57 13.9 57 57 WSW 9 15 30.05 1018 10 16 0.00 0.00
8:53 pm 20:53 Clear 71 21.7 59 15 66 66 SW 10 17 30.04 1017 10 16 0.00 0.00
9:53 pm 21:53 Clear 69 20.6 60 15.6 73 73 SSW 8 13 30.04 1017 10 16 0.00 0.00
10:53 pm 22:53 Clear 69 20.6 60 15.6 73 73 SSW 10 17 30.04 1017 10 16 0.00 0.00
11:25 pm 23:25 Mostly Cloudy 69 20.6 60 15.6 73 73 SW 9 15 30.05 1017 10 16 0.00 0.00
11:53 pm 23:53 Cloudy 69 20.6 60 15.6 73 73 SSW 14 22 30.05 1018 10 16 0.00 0.00

Powered by AerisWeather